Accueil
METAR-TAF:

METAR-TAF

Aéroports :

Plate-forme pétrolière

Statfjord B, Norvège

latitude: 61-12-22N, longitude: 1-49-45E, altitude: 10 m

Observation

Le bulletin a été fait il y a 46 minutes, à 14:50 UTC
Vent 20 kt de nord/nord-est
Température 5°C
Humidité 65%
Pression 1015 hPa
Visibilité 10 km ou plus

METAR: ENFB 171450Z AUTO 02020KT 9999 FEW029/// 05/M01 Q1015 W///S4

Heure: 17:36 (15:36 UTC)


TAF: absent

Observations et prévisions météorologiques de plus de 4000 aéroports (messages METAR et TAF).

Les stations disponibles sont représentées par des disques jaunes et rouges sur la carte.

Passer la souris dessus pour voir le nom de la station.

Cliquer dessus pour voir les observations et prévisions météorologiques.

Pour changer de carte: cliquez sur les boutons verts avec une croix noire pour zoomer, sur le bouton vert avec un tiret pour effectuer un zoom arrière, ou sur les flèches vertes pour les cartes adjacentes.


METAR-TAF: